Fort Dodge, IA

5:35 PM CST on November 18, 2019 (GMT -0600)
Fort Dodge Regional

Weather History for KFOD - October, 2019

Change the Weather History Date:

Monday, October 21, 2019

  Actual Average Record
Temperature  
Mean Temperature 48 °F -  
Max Temperature 53 °F 61 °F 80 °F (1953)
Min Temperature 43 °F 36 °F 19 °F (1976)
Degree Days  
Heating Degree Days 17    
Moisture  
Dew Point 47 °F    
Average Humidity 92    
Maximum Humidity 100    
Minimum Humidity 74    
Precipitation  
Precipitation 0.01 in - - ()
Sea Level Pressure  
Sea Level Pressure 29.38 in    
Wind  
Wind Speed 12 mph ()    
Max Wind Speed 24 mph    
Max Gust Speed 36 mph    
Visibility 8.7 miles    
Events Rain    
Averages and records for this station are not official NWS values.
T = Trace of Precipitation, MM = Missing Value Source: Averaged Metar Reports

Daily Weather History Graph

Daily Weather History Graph

Search for Another Location

Airport or City:

Astronomy

Oct. 21, 2019 Rise Set
Actual Time 7:36 AM CDT 6:25 PM CDT
Civil Twilight 7:08 AM CDT 6:54 PM CDT
Nautical Twilight 6:35 AM CDT 7:26 PM CDT
Astronomical Twilight 6:02 AM CDT 7:59 PM CDT
Moon No Moon Rise 2:59 PM CDT (10/21)
Length of Visible Light 11h 46m
Length of Day
10h 48m
Waning Gibbous, 48% of the Moon is Illuminated
Oct 21
Waning Gibbous
Oct 27
New
Nov 4
First Quarter
Nov 12
Full
Nov 19
Last Quarter

Hourly Weather History & Observations

Time (CDT) Temp. Windchill Dew Point Humidity Pressure Visibility Wind Dir Wind Speed Gust Speed Precip Events Conditions
12:56 AM 50.0 °F - 48.9 °F 96% - 7.0 mi North - - N/A Rain Light Rain
1:56 AM 50.0 °F - 48.9 °F 96% 29.62 in 7.0 mi ESE 19.6 mph 28.8 mph N/A Rain Light Rain
2:56 AM 50.0 °F - 48.9 °F 96% 29.55 in 10.0 mi East 17.3 mph 26.5 mph 0.00 in   Scattered Clouds
3:36 AM 50.0 °F - 48.2 °F 94% 29.43 in 10.0 mi East 18.4 mph - N/A   Mostly Cloudy
3:56 AM 50.0 °F - 48.9 °F 96% 29.50 in 10.0 mi East 13.8 mph 21.9 mph N/A   Overcast
4:56 AM 50.0 °F - 48.9 °F 96% 29.47 in 10.0 mi ESE 10.4 mph - N/A   Overcast
5:56 AM 51.1 °F - 50.0 °F 96% 29.42 in 9.0 mi South 3.5 mph - N/A Rain Light Rain
6:07 AM 51.8 °F - 50.0 °F 94% 29.34 in 3.0 mi SE 5.8 mph - N/A Rain Rain
6:56 AM 51.1 °F - 50.0 °F 96% 29.40 in 4.0 mi SE 4.6 mph - N/A Rain Light Rain
7:11 AM 51.8 °F - 51.8 °F 100% 29.32 in 8.0 mi SSE 3.5 mph - N/A Rain Light Rain
7:23 AM 51.8 °F - 51.8 °F 100% 29.31 in 2.5 mi SSE 3.5 mph - N/A Rain Light Rain
7:49 AM 51.8 °F - 51.8 °F 100% 29.30 in 6.0 mi SW 9.2 mph - N/A Rain Light Rain
7:56 AM 51.1 °F - 50.0 °F 96% 29.38 in 9.0 mi SW 10.4 mph - N/A   Overcast
8:12 AM 51.8 °F - 50.0 °F 94% 29.30 in 7.0 mi SW 6.9 mph - N/A   Overcast
8:21 AM 51.8 °F - 50.0 °F 94% 29.30 in 9.0 mi SW 6.9 mph - N/A   Overcast
8:56 AM 51.1 °F - 50.0 °F 96% 29.38 in 8.0 mi Calm Calm - N/A   Partly Cloudy
9:18 AM 51.8 °F - 50.0 °F 94% 29.29 in 8.0 mi Calm Calm - N/A   Partly Cloudy
9:54 AM 53.6 °F - 51.8 °F 94% 29.28 in 10.0 mi SW 9.2 mph - 0.01 in   Mostly Cloudy
9:56 AM 53.1 °F - 51.1 °F 93% 29.36 in 10.0 mi SSW 9.2 mph - 0.01 in   Mostly Cloudy
10:30 AM 53.6 °F - 51.8 °F 94% 29.27 in 10.0 mi SW 10.4 mph - N/A   Overcast
10:56 AM 50.0 °F - 48.0 °F 93% 29.36 in 10.0 mi SW 16.1 mph - N/A   Overcast
11:56 AM 50.0 °F - 46.9 °F 89% 29.35 in 10.0 mi SW 15.0 mph - N/A   Overcast
12:56 PM 51.1 °F - 46.0 °F 83% 29.36 in 10.0 mi SW 16.1 mph - N/A   Overcast
1:56 PM 52.0 °F - 46.0 °F 80% 29.35 in 10.0 mi SW 17.3 mph - N/A   Mostly Cloudy
2:13 PM 51.8 °F - 46.4 °F 82% 29.26 in 10.0 mi SW 15.0 mph 23.0 mph N/A   Mostly Cloudy
2:56 PM 53.1 °F - 45.0 °F 74% 29.34 in 10.0 mi WSW 17.3 mph 23.0 mph N/A   Overcast
3:56 PM 48.0 °F - 45.0 °F 89% 29.39 in 9.0 mi WSW 13.8 mph 21.9 mph N/A Rain Rain
4:54 PM 46.4 °F 41.9 °F 44.6 °F 93% 29.30 in 8.0 mi West 9.2 mph - N/A Rain Light Rain
4:56 PM 46.9 °F - 45.0 °F 93% 29.38 in 8.0 mi WSW 9.2 mph - N/A Rain Light Rain
5:48 PM 44.6 °F 37.4 °F 42.8 °F 93% 29.32 in 10.0 mi West 16.1 mph 24.2 mph 0.00 in Rain Light Rain
5:56 PM 45.0 °F 37.6 °F 42.1 °F 90% 29.42 in 10.0 mi West 17.3 mph 26.5 mph 0.00 in Rain Light Rain
6:11 PM 44.6 °F 37.8 °F 41.0 °F 87% 29.34 in 10.0 mi West 15.0 mph 29.9 mph 0.00 in Rain Light Rain
6:18 PM 44.6 °F 38.1 °F 41.0 °F 87% 29.34 in 10.0 mi West 13.8 mph 24.2 mph 0.00 in Rain Light Rain
6:33 PM 44.6 °F 36.9 °F 41.0 °F 87% 29.34 in 10.0 mi West 18.4 mph 26.5 mph 0.00 in Rain Light Rain
6:56 PM 43.0 °F 34.5 °F 41.0 °F 93% 29.44 in 10.0 mi West 19.6 mph 25.3 mph 0.00 in Rain Light Rain
7:56 PM 43.0 °F 34.0 °F 39.9 °F 89% 29.46 in 10.0 mi West 21.9 mph 31.1 mph 0.00 in Rain Light Rain
8:56 PM 44.1 °F 35.9 °F 42.1 °F 93% 29.46 in 8.0 mi West 19.6 mph 25.3 mph 0.00 in Rain Light Rain
9:56 PM 45.0 °F 36.9 °F 42.1 °F 90% 29.46 in 10.0 mi West 20.7 mph 34.5 mph 0.00 in Rain Light Rain
10:56 PM 45.0 °F 36.2 °F 42.1 °F 90% 29.50 in 7.0 mi West 24.2 mph 34.5 mph 0.00 in Rain Light Rain
11:56 PM 45.0 °F 36.6 °F 41.0 °F 86% 29.53 in 10.0 mi West 21.9 mph 35.7 mph 0.00 in Rain Light Rain